Location: *
(49.3500°N, 12.6000°E)
Time: 15:47:57
(UTC+00:00)

Daily predictions for brighter satellites

Satellite Brightness Start Highest point End
(mag) Time Altitude Azimuth Time Altitude Azimuth Time Altitude Azimuth
Cosmos 1271 Rocket 2.7 16:41:37 10° N 16:45:36 72° ENE 16:49:35 10° SSE
Unknown 3.7 16:42:19 10° WSW 16:46:29 88° NNW 16:50:38 10° ENE
Unknown 4.0 16:43:53 10° W 16:47:31 48° N 16:51:10 10° ENE
Unknown 3.7 16:43:43 10° WSW 16:47:53 85° NNW 16:52:03 10° ENE
Unknown 3.7 16:44:15 10° WSW 16:48:24 81° NNW 16:52:35 10° ENE
SKYMED 2 4.2 16:45:12 10° NNE 16:49:12 34° E 16:53:09 10° SSE
CZ-4 R/B 1.9 16:45:19 10° SE 16:49:15 42° ENE 16:53:15 10° N
Unknown 3.7 16:45:54 10° WSW 16:50:03 81° NNW 16:54:14 10° ENE
Unknown 3.7 16:49:00 10° WSW 16:53:09 83° NNW 16:57:19 10° ENE
YAOGAN 1 3.1 16:50:12 10° SE 16:54:12 38° ENE 16:58:13 10° N
Cosmos 2285 Rocket 4.4 16:48:00 10° NNW 16:54:26 72° WSW 17:00:48 10° SSE
Unknown 3.7 16:52:19 10° WSW 16:56:28 80° NNW 17:00:38 10° ENE
Unknown 3.7 16:53:30 10° WSW 16:57:36 74° NNW 17:01:43 10° ENE
H-2A R/B 4.0 16:55:45 10° ENE 16:57:40 12° NE 16:59:34 10° NNE
Meteor 2-10 4.4 16:53:13 10° SSE 16:57:52 38° E 17:02:30 10° NNE
Unknown 3.7 16:54:01 10° WSW 16:58:10 79° NNW 17:02:20 10° ENE
Unknown 3.7 16:55:39 10° WSW 16:59:48 78° NNW 17:03:54 10° ENE
Unknown 3.8 16:56:12 10° W 17:00:14 66° NNW 17:04:12 11° ENE
Unknown 3.7 16:57:19 10° WSW 17:01:29 77° NNW 17:05:31 11° ENE
H-2A R/B 3.9 16:59:20 10° S 17:03:08 50° W 17:06:59 10° NNW
CZ-4 R/B 4.5 16:59:06 10° SSE 17:03:09 59° ENE 17:07:13 10° N
SL-4 R/B 4.2 17:00:27 10° W 17:03:31 22° SW 17:06:24 10° S
Cosmos 2082 Rocket 3.0 16:58:50 10° NNW 17:03:56 32° NE 17:09:00 10° ESE
Cosmos 1726 Rocket 3.5 17:00:40 10° S 17:05:02 72° E 17:09:25 10° NNE
Unknown 4.0 17:01:34 10° W 17:05:19 49° N 17:08:42 12° ENE
Cosmos 2228 3.0 17:02:32 10° S 17:06:54 79° E 17:11:16 10° NNE
Unknown 3.8 17:03:56 10° WSW 17:08:05 73° NNW 17:11:50 12° ENE
Unknown 3.8 17:05:40 10° WSW 17:09:48 71° NNW 17:13:30 13° ENE
YAOGAN 6 2.6 17:06:26 10° SSE 17:10:03 61° ENE 17:13:39 10° N
CSL-04 Debris 4.2 17:04:56 10° SSE 17:10:16 61° ENE 17:15:42 10° N
Gbstr 26 Del rocket 4.0 17:04:44 10° WNW 17:10:33 82° NNE 17:17:14 12° ESE
Cosmos 1703 3.3 17:06:55 10° N 17:10:49 53° ENE 17:14:38 10° SSE
ASTEX 1 3.4 17:06:14 10° NNE 17:11:10 63° E 17:16:06 10° S
Shenzhou-11 Module 3.7 17:09:00 10° SW 17:11:11 21° S 17:13:13 11° SE
Unknown 3.8 17:07:18 10° WSW 17:11:26 71° NNW 17:15:04 13° ENE
Envisat 3.1 17:06:29 10° SSE 17:11:34 87° WSW 17:16:42 10° NNW
COSMOS 2406 3.2 17:05:56 10° NNW 17:11:46 83° ENE 17:17:31 10° SSE
Unknown 3.8 17:08:58 10° WSW 17:13:06 70° NNW 17:16:39 14° ENE
Unknown 3.8 17:10:38 10° WSW 17:14:46 69° NNW 17:18:15 14° ENE
Unknown 4.0 17:11:37 10° W 17:15:26 50° N 17:18:30 15° ENE
Cosmos 2084 3.8 17:11:27 10° SW 17:15:59 73° NW 17:20:26 10° NE
Cosmos 921 Rocket 3.0 17:11:47 10° SSW 17:16:16 78° ESE 17:20:44 10° NNE
EO 1 Delta rocket 4.0 17:11:53 10° SSE 17:16:19 51° ENE 17:21:10 10° N
FALCON 9 DEB 3.5 17:14:36 10° WNW 17:18:01 52° NNE 17:20:20 19° E
Unknown 3.8 17:14:00 10° W 17:18:08 67° NNW 17:21:29 15° ENE
Cosmos 292 Rocket 3.9 17:14:20 10° S 17:18:55 53° ESE 17:23:34 10° NNE
Starlink (trailer) 3.8 17:15:39 10° W 17:19:46 66° NNW 17:23:03 16° ENE
Unknown 3.4 17:16:24 10° WNW 17:19:47 56° NNE 17:21:58 20° E
Unknown 3.9 17:17:18 10° W 17:21:26 65° NNW 17:24:39 16° ENE
Cosmos 1844 Rocket 3.1 17:17:10 10° SW 17:22:47 67° WNW 17:28:25 10° NNE
Cosmos 2058 Rocket 2.9 17:18:34 10° S 17:22:55 73° E 17:27:16 10° NNE
Unknown 3.9 17:18:57 10° W 17:23:04 64° NNW 17:26:14 17° ENE
Cosmos 1356 3.3 17:20:42 10° S 17:24:06 64° E 17:27:32 10° NNE
Cosmos 2058 4.3 17:21:23 10° NNE 17:24:31 20° ENE 17:25:24 19° E
Cosmos 1953 3.5 17:21:42 10° SSW 17:25:38 46° WNW 17:29:35 10° N
Unknown 3.5 17:23:27 10° WNW 17:26:55 53° NNE 17:28:53 23° E
Unknown 3.9 17:25:20 10° W 17:29:27 61° NNW 17:32:18 19° ENE
Unknown 3.9 17:25:39 10° W 17:29:46 62° NNW 17:32:37 19° ENE
Unknown 3.9 17:26:17 10° W 17:30:24 61° NNW 17:33:14 19° ENE
Okean-O 4.4 17:26:38 10° SSW 17:30:43 36° W 17:34:51 10° NNW
USA 116 3.3 17:28:47 10° NNE 17:31:53 52° ESE 17:35:08 10° S
Meteor 1-11 4.2 17:26:30 10° N 17:32:18 80° ENE 17:38:06 10° SSE
Unknown 4.0 17:29:54 10° W 17:34:00 60° NNW 17:36:41 20° ENE
Unknown 4.0 17:30:42 10° W 17:34:48 60° NNW 17:37:27 21° ENE
Falcon 9 debris 3.2 17:33:04 10° WNW 17:36:30 63° NNE 17:38:02 29° E
Unknown 4.0 17:32:28 10° W 17:36:35 58° NNW 17:39:09 21° ENE
BREEZE-M DEB (TANK) 3.9 17:32:23 10° WNW 17:36:43 77° SSW 17:47:33 13° ESE
COSMO-SKYMED 1 2.7 17:33:03 10° NNE 17:37:25 81° WNW 17:41:46 10° SSW
Meteor 1-16 Rocket 4.3 17:31:53 10° SSW 17:37:26 80° WNW 17:42:52 10° N
Lacrosse 5 1.9 17:33:35 10° NW 17:38:38 64° NNE 17:41:42 23° ESE
Cosmos 1605 Rocket 3.9 17:32:27 10° N 17:38:42 80° E 17:44:49 10° SSE
Unknown 4.0 17:35:48 10° W 17:39:54 57° NNW 17:42:20 23° ENE
Unknown 4.0 17:36:06 10° W 17:40:13 58° NNW 17:42:37 23° ENE
SJ 16-02 3.1 17:37:46 10° NNE 17:40:24 16° NE 17:40:24 16° NE
Unknown 4.0 17:37:22 10° W 17:41:28 57° NNW 17:43:50 23° ENE
USA 238 DEB 4.2 17:35:38 10° S 17:41:35 35° ESE 17:46:22 16° ENE
USA 238 4.2 17:35:46 10° S 17:41:42 35° ESE 17:46:25 16° ENE
Cosmos 1908 3.1 17:37:48 10° S 17:41:42 73° E 17:45:36 10° NNE
Unknown 4.0 17:40:33 10° W 17:44:38 57° NNW 17:46:52 25° ENE
Cosmos 2278 Rocket 2.3 17:41:11 10° S 17:46:41 55° ESE 17:52:15 10° NE
Unknown 4.0 17:44:02 10° W 17:48:06 55° N 17:50:12 26° ENE
ATLAS 5 CENTAUR R/B 3.1 17:44:01 10° W 17:48:07 34° NNW 17:52:44 10° NNE
Unknown 3.2 17:46:07 10° WNW 17:49:37 66° NNE 17:50:40 41° E
Unknown 4.0 17:45:43 10° W 17:49:48 55° N 17:51:48 27° ENE
Cosmos 1727 Rocket 4.0 17:44:06 10° SSE 17:50:04 54° E 17:56:04 10° NNE
Unknown 4.1 17:47:21 10° W 17:51:26 55° N 17:53:23 28° ENE
IRS-1A Rocket 4.2 17:47:06 10° SSE 17:52:31 62° ENE 17:57:58 10° N
Unknown 4.1 17:49:02 10° W 17:53:06 54° N 17:54:59 29° NE
Lacrosse 5 rocket 4.2 17:51:42 10° WSW 17:53:08 12° SW 17:54:36 10° SSW
Resurs 01 Rocket 3.8 17:55:09 12° NE 17:55:09 12° NE 17:55:58 10° NNE
Ariane Rocket 2.9 17:49:07 10° SSE 17:54:10 71° ENE 17:59:17 10° N
Unknown 4.1 17:52:25 10° W 17:56:29 53° N 17:58:12 31° NE
Cosmos 1802 Rocket 4.5 17:51:49 10° N 17:57:51 40° ENE 18:01:02 25° ESE
Unknown 4.1 17:54:08 10° W 17:58:12 53° N 17:59:51 32° NE
Cosmos 2173 Rocket 4.2 17:52:22 10° N 17:58:25 46° ENE 18:02:38 19° SE
Cosmos 1939 Rocket 2.8 17:55:11 10° SSE 17:59:10 88° ENE 18:03:15 10° NNW
Unknown 4.1 17:55:44 10° W 17:59:48 53° N 18:01:22 33° NE
Abrixas rocket 3.2 17:58:28 10° SW 18:00:46 30° S 18:00:46 30° S
Unknown 4.1 17:57:22 10° W 18:01:27 53° N 18:02:57 34° NE
Unknown 4.1 17:57:49 10° W 18:01:53 52° N 18:03:22 34° NE
Cosmos 1461 2.8 17:58:26 10° NW 18:02:31 83° SW 18:04:27 31° SSE
Unknown 4.1 18:00:32 10° W 18:04:36 53° N 18:05:58 35° NE
NOSS 3-2 (A) 3.8 18:01:18 10° S 18:06:38 39° ESE 18:08:34 32° E
Unknown 4.1 18:03:55 10° W 18:07:59 52° N 18:09:13 37° NE
Cosmos 1726 3.8 18:05:54 10° SW 18:09:16 35° WNW 18:12:40 10° N
Unknown 4.1 18:05:34 10° W 18:09:37 52° N 18:10:46 38° NE
Cosmos 2084 Rocket 3.6 18:05:51 10° NW 18:10:15 58° NE 18:11:04 49° E
Cosmos 1937 Rocket 4.3 18:06:26 10° N 18:11:01 31° NE 18:11:09 31° ENE
Unknown 4.1 18:07:30 10° W 18:11:33 51° N 18:12:37 40° NE
Unknown 4.3 18:08:58 10° W 18:11:47 31° SW 18:12:18 29° SSW
NOSS 3-3 (A) 4.4 18:04:26 10° NW 18:11:50 80° NE 18:16:52 26° SE
NOSS 3-3 (C) 4.4 18:04:32 10° NW 18:11:55 79° NE 18:16:55 26° SE
Unknown 4.1 18:08:52 10° W 18:12:55 51° N 18:13:56 40° NE
HJ-1C 3.3 18:14:01 64° S 18:14:29 87° W 18:17:52 10° NNW
Unknown 4.1 18:10:34 10° W 18:14:37 51° N 18:15:34 42° NE
Cosmos 967 Rocket 4.5 18:09:09 10° NW 18:15:39 88° NE 18:19:24 27° SE
NOAA 11 4.5 18:11:08 10° S 18:16:34 69° WSW 18:22:00 10° NNW
Cosmos 990 Rocket 4.3 18:11:47 10° NNW 18:16:45 42° ENE 18:17:11 41° ENE
Cosmos 1725 Rocket 4.5 18:11:59 10° N 18:17:46 37° ENE 18:18:21 37° E
Unknown 4.1 18:13:57 10° W 18:18:00 51° N 18:18:48 44° NNE
SPOT 3 Rocket 3.7 18:17:55 44° E 18:18:44 48° ENE 18:23:45 10° N
Unknown 4.1 18:15:37 10° W 18:19:41 51° N 18:20:24 44° NNE
ARGOS 3.5 18:19:44 41° ENE 18:20:07 42° ENE 18:25:12 10° N
Cosmos 2100 Rocket 3.8 18:14:46 10° N 18:21:00 70° E 18:25:38 18° SSE
ATLAS CENTAUR R/B 3.7 18:18:26 10° NNW 18:21:02 15° NNE 18:21:38 14° NNE
Cosmos 1812 Rocket 3.4 18:16:36 10° S 18:21:02 87° E 18:25:31 10° N
Unknown 4.1 18:17:17 10° W 18:21:21 50° N 18:22:00 45° NNE
Unknown 4.1 18:18:58 10° W 18:23:01 50° N 18:23:35 46° NNE
Cosmos 1833 Rocket 3.2 18:18:31 10° NW 18:24:03 60° WSW 18:28:56 13° S
CZ-4 R/B 4.0 18:21:08 10° SW 18:24:26 22° W 18:27:48 10° NW
Cosmos 1076 Rocket 3.5 18:20:34 10° NNW 18:24:58 83° W 18:27:01 31° S
SJ-11-01 4.1 18:24:11 48° SE 18:25:25 73° ENE 18:30:07 10° N
Unknown 3.7 18:22:14 10° WNW 18:25:43 57° N 18:25:43 57° N
Unknown 4.1 18:22:17 10° W 18:26:20 50° N 18:26:46 48° NNE
Unknown 4.1 18:23:42 10° WNW 18:27:45 50° N 18:28:06 48° NNE
BREEZE-M DEB (TANK) 3.1 18:19:46 10° SW 18:27:51 48° SSE 18:28:00 48° SSE
Unknown 4.1 18:24:15 10° WNW 18:28:18 50° N 18:28:37 48° NNE
Unknown 4.1 18:25:54 10° WNW 18:29:57 50° N 18:30:12 49° NNE
NOSS 3-2 (C) 4.2 18:25:05 10° S 18:28:34 31° SSE 18:28:34 31° SSE
Unknown 4.1 18:28:59 10° WNW 18:33:02 50° N 18:33:10 49° N
H-2A R/B 2.1 18:35:44 58° E 18:35:57 58° ENE 18:41:17 10° N
Unknown 4.1 18:32:19 10° WNW 18:36:21 50° N 18:36:21 50° N
Unknown 4.2 18:33:21 10° WNW 18:37:13 49° N 18:37:13 49° N
Unknown 4.2 18:34:01 10° WNW 18:37:59 50° N 18:37:59 50° N
Unknown 4.2 18:35:40 10° WNW 18:39:33 49° N 18:39:33 49° N
Unknown 4.2 18:35:51 10° WNW 18:39:29 48° NNW 18:39:29 48° NNW
Unknown 4.2 18:37:21 10° WNW 18:41:10 49° NNW 18:41:10 49° NNW
Cosmos 2016 Rocket 3.9 18:36:15 10° N 18:42:30 67° ENE 18:43:50 53° SE
Unknown 4.3 18:40:18 10° WNW 18:43:14 45° NW 18:43:14 45° NW
Meteor 2-1 Rocket 4.0 18:39:30 10° S 18:45:00 74° E 18:50:34 10° NNE
ADEOS Rocket 3.5 18:38:11 10° NNE 18:45:51 58° E 18:52:57 10° S
Unknown 4.4 18:43:57 10° WNW 18:47:29 46° NNW 18:47:29 46° NNW
Cosmos 2082 Rocket 2.7 18:42:46 10° NW 18:48:22 56° WSW 18:51:05 29° S
SL-08 R/B 4.3 18:42:36 10° N 18:48:43 63° ENE 18:48:52 62° E
Unknown 4.5 18:45:42 10° WNW 18:49:09 46° NNW 18:49:09 46° NNW
Cosmos 2151 4.4 18:51:31 10° N 18:53:49 31° N 18:53:49 31° N
Cosmos 1898 Rocket 3.4 18:51:31 10° NNW 18:56:42 86° N 18:56:42 86° N
Cosmos 2058 3.9 18:57:39 10° NNW 19:01:38 46° W 19:01:38 46° W
Cosmos 2061 Rocket 3.9 18:56:29 10° N 19:02:47 86° W 19:04:09 58° S
ATLAS 3B R/B 4.2 18:59:17 10° S 19:01:17 20° S 19:01:17 20° S
CZ-2C R/B 3.5 19:12:02 60° NNE 19:12:02 60° NNE 19:16:51 10° N
CENTAUR R/B 4.5 19:10:39 10° SSW 19:11:09 13° SSW 19:11:09 13° SSW
SJ 16-02 3.0 19:15:14 10° NNW 19:17:24 28° NNW 19:17:24 28° NNW
Lacrosse 5 3.1 19:16:48 10° WNW 19:20:56 35° WSW 19:20:56 35° WSW
Resurs 01 Rocket 3.9 19:32:43 19° NNW 19:32:43 19° NNW 19:34:04 10° NNW
Cosmos 2278 Rocket 3.8 19:26:02 10° WSW 19:31:05 32° NW 19:36:10 10° NNE
USA 238 DEB 3.9 19:25:29 10° SW 19:32:11 65° NW 19:33:52 50° NNE
USA 238 3.9 19:25:35 10° SW 19:32:17 66° NW 19:33:55 51° NNE
ATLAS 5 CENTAUR R/B 4.1 19:30:57 10° NW 19:34:17 18° N 19:34:49 18° N
NOSS 3-2 (A) 4.3 19:51:26 10° WSW 19:56:02 47° WNW 19:56:02 47° WNW
ATLAS CENTAUR R/B 4.4 19:57:03 10° NNW 19:57:49 14° NNW 19:57:49 14° NNW
H-2A R/B 4.1 20:16:22 23° W 20:16:22 23° W 20:20:06 10° NW
